SALIDA Weather Reports


Display with metric or nautical units.
time (UTC)temp
F
wind
direction
speed
MPH
gust
MPH
rain 1hr
in
rain 24hr
in
rain mn
in
humidity
%
barometer
mb
20260508013120 59 335 3.0 4.0 0.00 0.00 0.00 35 1011.7
20260508011620 59 333 3.0 6.0 0.00 0.00 0.00 36 1011.8
20260508010120 61 318 3.0 4.0 0.00 0.00 0.00 33 1011.8
20260508004620 62 1 3.0 8.0 0.00 0.00 0.00 31 1012.0
20260508003120 62 20 4.0 13.0 0.00 0.00 0.00 31 1011.9
20260508001620 63 28 4.0 14.0 0.00 0.00 0.00 30 1012.2
20260508000120 64 357 5.0 13.0 0.00 0.00 0.00 29 1012.2
20260507234620 64 30 5.0 9.0 0.00 0.00 0.00 30 1012.1
20260507233120 63 357 4.0 9.0 0.00 0.00 0.00 33 1012.3
20260507231620 62 1 2.0 6.0 0.00 0.00 0.00 32 1012.5
20260507230120 62 304 3.0 10.0 0.00 0.00 0.00 35 1012.5
20260507224620 61 358 2.0 4.0 0.00 0.00 0.00 34 1012.7
20260507223120 61 335 2.0 5.0 0.00 0.00 0.00 35 1012.8
20260507221620 61 349 4.0 7.0 0.00 0.00 0.00 34 1013.2
20260507220120 61 34 4.0 8.0 0.00 0.00 0.00 35 1013.4
20260507214620 61 40 4.0 4.0 0.00 0.00 0.00 33 1013.9
20260507213120 63 296 7.0 15.0 0.00 0.00 0.00 33 1014.0
20260507211620 63 333 6.0 10.0 0.00 0.00 0.00 33 1014.3
20260507210120 63 336 5.0 10.0 0.00 0.00 0.00 33 1014.5
20260507204620 63 224 5.0 9.0 0.00 0.00 0.00 34 1014.7
20260507203120 62 224 5.0 8.0 0.00 0.01 0.00 33 1015.1
20260507201620 62 273 6.0 12.0 0.00 0.01 0.00 35 1015.5
20260507200120 62 283 5.0 10.0 0.00 0.01 0.00 34 1015.8
20260507194620 61 243 5.0 16.0 0.00 0.01 0.00 34 1015.9
20260507193120 60 226 4.0 11.0 0.00 0.06 0.00 36 1016.2
20260507191620 59 100 3.0 4.0 0.00 0.06 0.00 35 1016.4
20260507190120 58 5 3.0 6.0 0.00 0.06 0.00 38 1016.8
20260507184620 57 110 3.0 7.0 0.00 0.06 0.00 39 1017.2
20260507183120 56 46 3.0 8.0 0.00 0.17 0.00 42 1018.0
20260507181620 55 87 2.0 8.0 0.00 0.17 0.00 42 1018.2
20260507180120 54 94 2.0 5.0 0.00 0.17 0.00 44 1018.9
20260507174620 53 113 2.0 3.0 0.00 0.17 0.00 41 1019.3
20260507173120 52 113 2.0 5.0 0.00 0.28 0.00 42 1019.8
20260507171620 51 359 3.0 6.0 0.00 0.28 0.00 44 1020.3
20260507170159 50 323 3.0 7.0 0.00 0.28 0.00 47 1020.8
20260507170120 50 323 3.0 7.0 0.00 0.28 0.00 47 1020.8
20260507164620 48 20 4.0 9.0 0.00 0.28 0.00 46 1021.3
20260507163120 48 359 3.0 6.0 0.00 0.30 0.00 49 1021.4
20260507161620 46 15 4.0 8.0 0.00 0.30 0.00 50 1021.6
20260507160120 45 1 3.0 6.0 0.00 0.30 0.00 55 1021.8
20260507154620 42 336 2.0 4.0 0.00 0.30 0.00 59 1022.2
20260507153121 41 313 2.0 4.0 0.00 0.30 0.00 62 1022.5
20260507151621 39 343 2.0 4.0 0.00 0.30 0.00 64 1022.7
20260507150121 37 304 3.0 5.0 0.00 0.30 0.00 66 1022.8
20260507144621 36 331 1.0 4.0 0.00 0.30 0.00 67 1022.9
20260507143121 35 356 2.0 5.0 0.00 0.30 0.00 70 1023.2
20260507141621 34 328 2.0 4.0 0.00 0.30 0.00 70 1023.3
20260507140121 32 328 2.0 5.0 0.00 0.30 0.00 70 1023.5
20260507134621 31 299 0.0 0.0 0.00 0.30 0.00 77 1023.6
20260507133121 28 299 0.0 1.0 0.00 0.30 0.00 82 1023.7
20260507131621 27 299 0.0 0.0 0.00 0.30 0.00 82 1023.6
20260507130121 26 299 0.0 0.0 0.00 0.30 0.00 83 1023.4
20260507124621 25 299 0.0 0.0 0.00 0.30 0.00 84 1023.1
20260507123121 25 299 1.0 3.0 0.00 0.30 0.00 83 1023.0
20260507121621 25 8 0.0 0.0 0.00 0.30 0.00 84 1022.8
20260507120121 25 314 0.0 3.0 0.00 0.30 0.00 84 1022.8
20260507114621 25 314 0.0 0.0 0.00 0.30 0.00 82 1022.7
20260507113121 26 314 1.0 2.0 0.00 0.30 0.00 82 1022.7
20260507111621 26 333 1.0 3.0 0.00 0.30 0.00 83 1022.6
20260507110121 26 307 2.0 2.0 0.00 0.30 0.00 84 1022.6
20260507104621 25 320 1.0 3.0 0.00 0.30 0.00 86 1022.3
20260507103121 25 320 1.0 3.0 0.00 0.30 0.00 85 1022.5
20260507101621 25 320 0.0 3.0 0.00 0.30 0.00 84 1022.6
20260507100121 26 320 0.0 2.0 0.00 0.30 0.00 84 1022.5
20260507094621 26 320 1.0 2.0 0.00 0.30 0.00 85 1022.3
20260507093121 25 320 0.0 0.0 0.00 0.30 0.00 86 1022.2
20260507091621 26 320 0.0 0.0 0.00 0.30 0.00 85 1022.1
20260507090121 26 320 0.0 1.0 0.00 0.30 0.00 84 1022.3
20260507084621 27 320 0.0 2.0 0.00 0.30 0.30 84 1022.2
20260507083121 27 320 1.0 1.0 0.00 0.30 0.30 82 1022.3
20260507081621 27 320 0.0 2.0 0.00 0.30 0.30 82 1022.0
20260507080121 28 320 1.0 4.0 0.00 0.30 0.30 82 1021.8
20260507074621 27 321 1.0 2.0 0.00 0.30 0.30 84 1021.7
20260507073121 27 321 1.0 3.0 0.00 0.30 0.30 85 1021.6
20260507071621 27 321 0.0 2.0 0.00 0.30 0.30 84 1021.4
20260507070121 28 321 1.0 3.0 0.00 0.30 0.30 84 1021.2
20260507064621 28 321 0.0 2.0 0.00 0.30 0.30 84 1021.2
20260507063121 28 321 0.0 0.0 0.00 0.30 0.30 85 1021.2
20260507061621 28 321 0.0 3.0 0.00 0.30 0.30 85 1021.4
20260507060121 28 321 0.0 2.0 0.00 0.30 0.30 84 1021.1
20260507054621 29 321 1.0 3.0 0.00 0.30 0.30 83 1021.0
20260507053122 29 321 0.0 1.0 0.00 0.30 0.30 84 1020.6
20260507051622 29 321 1.0 2.0 0.00 0.30 0.30 84 1020.5
20260507050122 29 321 1.0 3.0 0.00 0.30 0.30 83 1020.4
20260507044622 30 320 1.0 4.0 0.00 0.30 0.30 83 1020.3
20260507043122 30 320 2.0 3.0 0.00 0.30 0.30 82 1019.9
20260507041622 31 321 2.0 4.0 0.00 0.30 0.30 83 1020.0
20260507040122 31 321 1.0 3.0 0.00 0.30 0.30 82 1019.8
20260507034622 32 188 0.0 0.0 0.00 0.30 0.30 80 1019.4
20260507033122 32 188 0.0 0.0 0.00 0.30 0.30 80 1019.1
20260507031622 33 188 0.0 0.0 0.00 0.30 0.30 79 1018.9
20260507030122 34 188 0.0 0.0 0.00 0.30 0.30 78 1018.5
20260507024622 35 188 0.0 0.0 0.00 0.30 0.30 77 1018.2
20260507023122 36 188 0.0 0.0 0.00 0.30 0.30 74 1018.0
20260507021622 36 188 0.0 1.0 0.00 0.30 0.30 71 1017.7
20260507020122 37 188 1.0 3.0 0.00 0.30 0.30 70 1017.6
20260507014622 38 185 2.0 4.0 0.00 0.30 0.30 69 1017.4